When you browse on this site, cookies collect data to enhance your experience and personalize the content and advertising you see.
Visit our Privacy Policy to learn more. By continuing to use the site, you agree to this use of cookies and data.
  • In Schweiz
  • Länderverzeichnis
  • Für 7 Tage
  • Wassertemperatur
  • Satellitenkarten
  • Wetterkarte
  • Widgets
  • user-avatar
    Anmelden

    Stündliche Wetter Limassol

    Heute, 24 Juni, Montag

    Zeit Temperatur Niederschläge Wind Luftdruck Luftfeuchtigkeit
    00:00 +30°C° 0 mm 3 m/S 761 mmHg 57%
    01:00 +29°C° 0 mm 2 m/S 761 mmHg 56%
    02:00 +29°C° 0 mm 2 m/S 761 mmHg 58%
    03:00 +29°C° 0 mm 1 m/S 761 mmHg 58%
    04:00 +28°C° 0 mm 1 m/S 761 mmHg 59%
    05:00 +28°C° 0 mm 1 m/S 761 mmHg 60%
    06:00 +30°C° 0 mm 1 m/S 761 mmHg 54%
    07:00 +32°C° 0 mm 1 m/S 761 mmHg 47%
    08:00 +34°C° 0 mm 1 m/S 761 mmHg 40%
    09:00 +35°C° 0 mm 1 m/S 761 mmHg 41%
    10:00 +36°C° 0 mm 2 m/S 762 mmHg 41%
    11:00 +37°C° 0 mm 2 m/S 762 mmHg 42%
    12:00 +37°C° 0 mm 3 m/S 762 mmHg 41%
    13:00 +37°C° 0 mm 3 m/S 761 mmHg 40%
    14:00 +38°C° 0 mm 4 m/S 761 mmHg 39%
    15:00 +38°C° 0 mm 4 m/S 761 mmHg 38%
    16:00 +39°C° 0 mm 5 m/S 761 mmHg 37%
    17:00 +39°C° 0 mm 5 m/S 760 mmHg 36%
    18:00 +37°C° 0 mm 5 m/S 761 mmHg 40%
    19:00 +36°C° 0 mm 5 m/S 761 mmHg 43%
    20:00 +34°C° 0 mm 5 m/S 761 mmHg 47%
    21:00 +34°C° 0 mm 4 m/S 761 mmHg 44%
    22:00 +33°C° 0 mm 4 m/S 761 mmHg 42%
    23:00 +33°C° 0 mm 3 m/S 761 mmHg 39%

    Morgen, 25 Juni, Dienstag

    Zeit Temperatur Niederschläge Wind Luftdruck Luftfeuchtigkeit
    00:00 +31°C° 0 mm 3 m/S 761 mmHg 40%
    01:00 +31°C° 0 mm 2 m/S 760 mmHg 40%
    02:00 +30°C° 0 mm 2 m/S 760 mmHg 40%
    03:00 +30°C° 0 mm 2 m/S 760 mmHg 42%
    04:00 +29°C° 0 mm 2 m/S 760 mmHg 44%
    05:00 +29°C° 0 mm 2 m/S 760 mmHg 45%
    06:00 +31°C° 0 mm 2 m/S 760 mmHg 43%
    07:00 +34°C° 0 mm 2 m/S 760 mmHg 40%
    08:00 +36°C° 0 mm 2 m/S 761 mmHg 37%
    09:00 +37°C° 0 mm 2 m/S 761 mmHg 36%
    10:00 +38°C° 0 mm 3 m/S 761 mmHg 34%
    11:00 +38°C° 0 mm 3 m/S 761 mmHg 33%
    12:00 +39°C° 0 mm 3 m/S 761 mmHg 32%
    13:00 +40°C° 0 mm 4 m/S 761 mmHg 31%
    14:00 +41°C° 0 mm 5 m/S 761 mmHg 30%
    15:00 +41°C° 0 mm 5 m/S 760 mmHg 30%
    16:00 +40°C° 0 mm 5 m/S 760 mmHg 30%
    17:00 +40°C° 0 mm 6 m/S 760 mmHg 29%
    18:00 +39°C° 0 mm 5 m/S 760 mmHg 33%
    19:00 +36°C° 0 mm 5 m/S 760 mmHg 37%
    20:00 +34°C° 0 mm 5 m/S 760 mmHg 41%
    21:00 +34°C° 0 mm 5 m/S 760 mmHg 41%
    22:00 +34°C° 0 mm 4 m/S 760 mmHg 41%
    23:00 +33°C° 0 mm 4 m/S 760 mmHg 41%

    übermorgen, 26 Juni, Mittwoch

    Zeit Temperatur Niederschläge Wind Luftdruck Luftfeuchtigkeit
    00:00 +33°C° 0 mm 4 m/S 760 mmHg 41%
    01:00 +31°C° 0 mm 3 m/S 760 mmHg 42%
    02:00 +31°C° 0 mm 3 m/S 760 mmHg 42%
    03:00 +30°C° 0 mm 3 m/S 760 mmHg 44%
    04:00 +30°C° 0 mm 2 m/S 760 mmHg 46%
    05:00 +30°C° 0 mm 2 m/S 760 mmHg 48%
    06:00 +32°C° 0 mm 2 m/S 760 mmHg 43%
    07:00 +35°C° 0 mm 2 m/S 760 mmHg 37%
    08:00 +37°C° 0 mm 2 m/S 761 mmHg 32%
    09:00 +38°C° 0 mm 2 m/S 761 mmHg 32%
    10:00 +38°C° 0 mm 3 m/S 761 mmHg 32%
    11:00 +40°C° 0 mm 4 m/S 761 mmHg 32%
    12:00 +41°C° 0 mm 5 m/S 761 mmHg 30%
    13:00 +41°C° 0 mm 6 m/S 761 mmHg 29%
    14:00 +43°C° 0 mm 7 m/S 761 mmHg 28%
    15:00 +41°C° 0 mm 7 m/S 761 mmHg 28%
    16:00 +41°C° 0 mm 8 m/S 760 mmHg 29%
    17:00 +40°C° 0 mm 8 m/S 760 mmHg 30%
    18:00 +38°C° 0 mm 7 m/S 760 mmHg 34%
    19:00 +35°C° 0 mm 7 m/S 760 mmHg 39%
    20:00 +34°C° 0 mm 6 m/S 760 mmHg 44%
    21:00 +33°C° 0 mm 6 m/S 760 mmHg 44%
    22:00 +32°C° 0 mm 6 m/S 760 mmHg 44%
    23:00 +32°C° 0 mm 5 m/S 760 mmHg 44%

    27 Juni, Donnerstag

    Zeit Temperatur Niederschläge Wind Luftdruck Luftfeuchtigkeit
    00:00 +30°C° 0 mm 6 m/S 760 mmHg 43%
    01:00 +30°C° 0 mm 6 m/S 759 mmHg 42%
    02:00 +29°C° 0 mm 6 m/S 759 mmHg 40%
    03:00 +29°C° 0 mm 5 m/S 759 mmHg 43%
    04:00 +28°C° 0 mm 5 m/S 759 mmHg 46%
    05:00 +27°C° 0 mm 5 m/S 759 mmHg 48%
    06:00 +30°C° 0 mm 5 m/S 759 mmHg 44%
    07:00 +33°C° 0 mm 5 m/S 759 mmHg 39%
    08:00 +35°C° 0 mm 5 m/S 759 mmHg 34%
    09:00 +36°C° 0 mm 5 m/S 759 mmHg 34%
    10:00 +38°C° 0 mm 6 m/S 759 mmHg 34%
    11:00 +39°C° 0 mm 6 m/S 760 mmHg 33%
    12:00 +39°C° 0 mm 6 m/S 759 mmHg 33%
    13:00 +39°C° 0 mm 7 m/S 759 mmHg 32%
    14:00 +39°C° 0 mm 7 m/S 759 mmHg 32%
    15:00 +39°C° 0 mm 7 m/S 758 mmHg 34%
    16:00 +38°C° 0 mm 8 m/S 758 mmHg 37%
    17:00 +37°C° 0 mm 8 m/S 758 mmHg 40%
    18:00 +35°C° 0 mm 8 m/S 758 mmHg 47%
    19:00 +33°C° 0 mm 7 m/S 758 mmHg 54%
    20:00 +30°C° 0 mm 7 m/S 758 mmHg 62%
    21:00 +30°C° 0 mm 7 m/S 758 mmHg 61%
    22:00 +29°C° 0 mm 7 m/S 758 mmHg 59%
    23:00 +29°C° 0 mm 6 m/S 758 mmHg 58%

    28 Juni, Freitag

    Zeit Temperatur Niederschläge Wind Luftdruck Luftfeuchtigkeit
    00:00 +28°C° 0 mm 6 m/S 757 mmHg 61%
    01:00 +28°C° 0 mm 5 m/S 757 mmHg 63%
    02:00 +27°C° 0 mm 5 m/S 757 mmHg 65%
    03:00 +27°C° 0 mm 5 m/S 757 mmHg 66%
    04:00 +27°C° 0 mm 5 m/S 757 mmHg 67%
    05:00 +27°C° 0 mm 4 m/S 757 mmHg 68%
    06:00 +29°C° 0 mm 4 m/S 757 mmHg 63%
    07:00 +30°C° 0 mm 4 m/S 757 mmHg 59%
    08:00 +33°C° 0 mm 4 m/S 757 mmHg 54%
    09:00 +33°C° 0 mm 4 m/S 757 mmHg 55%
    10:00 +34°C° 0 mm 5 m/S 757 mmHg 56%
    11:00 +35°C° 0 mm 5 m/S 757 mmHg 57%
    12:00 +35°C° 0 mm 6 m/S 756 mmHg 55%
    13:00 +35°C° 0 mm 6 m/S 756 mmHg 53%
    14:00 +36°C° 0 mm 6 m/S 756 mmHg 51%
    15:00 +35°C° 0 mm 7 m/S 756 mmHg 51%
    16:00 +35°C° 0 mm 7 m/S 756 mmHg 51%
    17:00 +35°C° 0 mm 7 m/S 755 mmHg 51%
    18:00 +34°C° 0 mm 7 m/S 755 mmHg 53%
    19:00 +33°C° 0 mm 6 m/S 756 mmHg 56%
    20:00 +32°C° 0 mm 6 m/S 756 mmHg 58%
    21:00 +32°C° 0 mm 6 m/S 756 mmHg 54%
    22:00 +32°C° 0 mm 5 m/S 756 mmHg 49%
    23:00 +30°C° 0 mm 5 m/S 756 mmHg 45%

    29 Juni, Samstag

    Zeit Temperatur Niederschläge Wind Luftdruck Luftfeuchtigkeit
    00:00 +30°C° 0 mm 5 m/S 756 mmHg 47%
    01:00 +30°C° 0 mm 5 m/S 755 mmHg 49%
    02:00 +30°C° 0 mm 5 m/S 755 mmHg 51%
    03:00 +29°C° 0 mm 5 m/S 755 mmHg 52%
    04:00 +29°C° 0 mm 4 m/S 755 mmHg 53%
    05:00 +29°C° 0 mm 3 m/S 755 mmHg 54%
    06:00 +31°C° 0 mm 3 m/S 755 mmHg 52%
    07:00 +33°C° 0 mm 3 m/S 755 mmHg 50%
    08:00 +35°C° 0 mm 3 m/S 756 mmHg 49%
    09:00 +35°C° 0 mm 3 m/S 756 mmHg 49%
    10:00 +36°C° 0 mm 3 m/S 756 mmHg 49%
    11:00 +37°C° 0 mm 4 m/S 756 mmHg 49%
    12:00 +37°C° 0 mm 4 m/S 756 mmHg 47%
    13:00 +37°C° 0 mm 4 m/S 756 mmHg 45%
    14:00 +37°C° 0 mm 5 m/S 756 mmHg 42%
    15:00 +37°C° 0 mm 5 m/S 756 mmHg 46%
    16:00 +36°C° 0 mm 6 m/S 755 mmHg 49%
    17:00 +35°C° 0 mm 7 m/S 755 mmHg 52%
    18:00 +34°C° 0 mm 7 m/S 755 mmHg 57%
    19:00 +33°C° 0 mm 7 m/S 755 mmHg 62%
    20:00 +32°C° 0 mm 7 m/S 756 mmHg 67%
    21:00 +32°C° 0 mm 7 m/S 756 mmHg 64%
    22:00 +32°C° 0 mm 7 m/S 756 mmHg 61%
    23:00 +32°C° 0 mm 7 m/S 756 mmHg 58%
    Mehr zeigen